Regional Weather Roundup
Issued by NWS Cleveland, OH

Home | Current Version | Previous Version | Text Only | Print | Product List | Glossary Off
Versions: 1 2 3 4 5 6 7 8 9 10 11 12 13 14 15 16 17 18 19 20 21 22 23 24 25 26 27 28 29 30 31 32 33 34 35 36 37 38 39 40 41 42 43 44 45 46 47 48 49 50

000
ASUS41 KCLE 300310
RWRCLE
OHIO REGIONAL WEATHER ROUNDUP
NATIONAL WEATHER SERVICE WILMINGTON, OH
1100 PM EDT MON SEP 29 2014

NOTE: "FAIR" INDICATES FEW OR NO CLOUDS BELOW 12,000 FEET WITH NO
SIGNIFICANT WEATHER AND/OR OBSTRUCTIONS TO VISIBILITY.

OHZ001>008-015>018-024>027-034-035-043-044-300400-
   NORTHWEST OHIO

CITY           SKY/WX    TMP DP  RH WIND       PRES   REMARKS
DEFIANCE       CLEAR     59  55  87 CALM      29.92F
FINDLAY        CLEAR     61  51  70 W3        29.92S
TOLEDO EXPRESS CLEAR     58  55  90 CALM      29.91F
TOLEDO METCALF CLEAR     61  55  81 S3        29.92S
LIMA           CLEAR     59  52  77 CALM      29.94S
$$

OHZ009>014-019>023-028>033-038-089-300400-
   NORTHEAST OHIO

CITY           SKY/WX    TMP DP  RH WIND       PRES   REMARKS
CLE-HOPKINS    CLEAR     59  54  83 CALM      29.93F
CLE-LAKEFRONT  CLEAR     65  55  70 SE9       29.90F
CUY CO. ARPT   CLEAR     59  57  94 CALM      29.92F
LORAIN-ELYRIA  CLEAR     62  55  77 CALM      29.92F
ASHTABULA      CLEAR     51  51 100 CALM      29.92F FOG
AKRON-CANTON   CLEAR     63  54  72 CALM      29.93F
WOOSTER        CLEAR     53  49  86 CALM      29.94S FOG
MANSFIELD      CLEAR     58  55  90 S3        29.94F
YOUNGSTOWN     CLEAR     53  52  96 SE3       29.93F
$$

OHZ042-051>053-060>062-070>072-077>081-300400-
  SOUTHWEST OHIO

CITY           SKY/WX    TMP DP  RH WIND       PRES   REMARKS
CINC-COVINGTON CLEAR     61  50  67 CALM      29.95S
CINC-LUNKEN    CLEAR     57  55  93 CALM      29.95S
HAMILTON       CLEAR     54  52  93 CALM      29.95S
DAYTON         CLEAR     66  49  54 NW7       29.96S
WRIGHT-PAT AFB CLEAR     58  52  80 CALM      29.94F
DAYTON GENERAL CLEAR     66  48  52 CALM      29.94F
WILMINGTON     CLEAR     57  50  77 CALM      29.95S
$$

OHZ036-037-039>041-045>050-054>059-063>069-073>076-082>088-300400-
  CENTRAL AND SOUTHEAST OHIO

CITY           SKY/WX    TMP DP  RH WIND       PRES   REMARKS
COLUMBUS       CLEAR     63  51  65 CALM      29.92F
OSU AIRPORT    CLEAR     62  50  64 CALM      29.93S
BOLTON FIELD   CLEAR     54  50  87 CALM      29.94S
RICKENBACK AFB CLEAR     59  51  75 CALM      29.93S
NEWARK         CLEAR     55  51  86 CALM      29.93S
MARION         CLEAR     59  49  69 CALM      29.93F
LANCASTER      CLEAR     53  49  86 CALM      29.93F
ZANESVILLE     CLEAR     57  53  86 CALM      29.92S
NEW PHILLY     CLEAR     57  55  93 CALM      29.94S
$$



USA.gov is the U.S. government's official web portal to all federal, state and local government web resources and services.